カタログに戻る

STARLINK-31859

運用中通信VLEO
NORAD 59848·PAYLOAD·🇺🇸 United States

打ち上げ May 23, 2024 から Cape Canaveral Space Force Station

Loading…

次のパス (今後24時間)

TLE

最新Source: CelesTrak SupGP

元期: Sep 14, 2026, 22:40 UTC

1 59848C 24097P   26257.94493056  .00072091  00000+0  22418-2 0  2572
2 59848  42.9976 277.3070 0004363  81.3636   4.2927 15.32456982    12

AllMySatでSTARLINK-31859をリアルタイム追跡

Download on the App Store